When you browse on this site, cookies collect data to enhance your experience and personalize the content and advertising you see.
Visit our Privacy Policy to learn more. By continuing to use the site, you agree to this use of cookies and data.
  • In Austria
  • List of Countries
  • For 7 days
  • Water Temperature
  • Weather Map
  • News
  • Weather Widgets
  • user-avatar
    Login

    Hourly Weather Kobe

    Today, 23 August, Friday

    Time Temperature Precipitation Wind Pressure Humidity
    00:00 +29°C° 0.6 mm 7 mps 751 mmHg 84%
    01:00 +29°C° 1.7 mm 6 mps 751 mmHg 84%
    02:00 +29°C° 1.7 mm 5 mps 750 mmHg 85%
    03:00 +28°C° 0 mm 4 mps 750 mmHg 86%
    04:00 +28°C° 3.2 mm 5 mps 750 mmHg 88%
    05:00 +28°C° 3.2 mm 6 mps 750 mmHg 90%
    06:00 +27°C° 3.2 mm 7 mps 751 mmHg 92%
    07:00 +27°C° 2 mm 6 mps 751 mmHg 91%
    08:00 +27°C° 2 mm 5 mps 751 mmHg 90%
    09:00 +28°C° 0 mm 4 mps 751 mmHg 85%
    10:00 +28°C° 2.9 mm 4 mps 751 mmHg 85%
    11:00 +28°C° 2.9 mm 4 mps 751 mmHg 86%
    12:00 +27°C° 2.9 mm 5 mps 751 mmHg 87%
    13:00 +28°C° 0.3 mm 4 mps 750 mmHg 83%
    14:00 +29°C° 0.3 mm 4 mps 750 mmHg 79%
    15:00 +30°C° 0.3 mm 3 mps 750 mmHg 74%
    16:00 +30°C° 0.3 mm 3 mps 750 mmHg 76%
    17:00 +30°C° 0.3 mm 3 mps 751 mmHg 77%
    18:00 +29°C° 0.3 mm 3 mps 751 mmHg 78%
    19:00 +29°C° 0.7 mm 3 mps 751 mmHg 78%
    20:00 +28°C° 0.7 mm 2 mps 751 mmHg 79%
    21:00 +28°C° 0.7 mm 2 mps 752 mmHg 79%
    22:00 +28°C° 0.4 mm 2 mps 752 mmHg 80%
    23:00 +28°C° 0.4 mm 2 mps 752 mmHg 81%

    Tomorrow, 24 August, Saturday

    Time Temperature Precipitation Wind Pressure Humidity
    00:00 +27°C° 0.4 mm 2 mps 752 mmHg 81%
    01:00 +27°C° 0.4 mm 2 mps 752 mmHg 80%
    02:00 +27°C° 0.4 mm 2 mps 752 mmHg 79%
    03:00 +27°C° 0.4 mm 2 mps 752 mmHg 78%
    04:00 +27°C° 0.1 mm 2 mps 752 mmHg 78%
    05:00 +27°C° 0.1 mm 2 mps 752 mmHg 78%
    06:00 +27°C° 0.1 mm 2 mps 752 mmHg 78%
    07:00 +27°C° 0.6 mm 3 mps 753 mmHg 77%
    08:00 +28°C° 0.6 mm 4 mps 753 mmHg 75%
    09:00 +28°C° 0.6 mm 5 mps 753 mmHg 74%
    10:00 +28°C° 0.7 mm 5 mps 753 mmHg 75%
    11:00 +28°C° 0.7 mm 5 mps 753 mmHg 76%
    12:00 +28°C° 0.7 mm 6 mps 753 mmHg 77%
    13:00 +28°C° 0.1 mm 5 mps 753 mmHg 74%
    14:00 +29°C° 0.1 mm 5 mps 752 mmHg 71%
    15:00 +29°C° 0.1 mm 5 mps 752 mmHg 68%
    16:00 +29°C° 0 mm 5 mps 752 mmHg 70%
    17:00 +28°C° 0 mm 4 mps 752 mmHg 71%
    18:00 +28°C° 0 mm 4 mps 753 mmHg 73%
    19:00 +28°C° 0 mm 4 mps 753 mmHg 74%
    20:00 +27°C° 0 mm 4 mps 753 mmHg 74%
    21:00 +27°C° 0 mm 4 mps 753 mmHg 75%
    22:00 +27°C° 0 mm 4 mps 753 mmHg 75%
    23:00 +27°C° 0 mm 4 mps 753 mmHg 75%

    Day after tomorrow, 25 August, Sunday

    Time Temperature Precipitation Wind Pressure Humidity
    00:00 +27°C° 0 mm 4 mps 753 mmHg 75%
    01:00 +27°C° 0 mm 4 mps 753 mmHg 76%
    02:00 +26°C° 0 mm 3 mps 753 mmHg 77%
    03:00 +26°C° 0 mm 3 mps 753 mmHg 79%
    04:00 +26°C° 0 mm 3 mps 753 mmHg 78%
    05:00 +26°C° 0 mm 2 mps 754 mmHg 78%
    06:00 +26°C° 0 mm 2 mps 754 mmHg 78%
    07:00 +27°C° 0.1 mm 2 mps 754 mmHg 72%
    08:00 +28°C° 0.1 mm 2 mps 754 mmHg 65%
    09:00 +29°C° 0.1 mm 2 mps 754 mmHg 59%
    10:00 +29°C° 0 mm 3 mps 754 mmHg 56%
    11:00 +30°C° 0 mm 4 mps 754 mmHg 54%
    12:00 +30°C° 0 mm 4 mps 754 mmHg 51%
    13:00 +30°C° 0 mm 4 mps 754 mmHg 53%
    14:00 +30°C° 0 mm 4 mps 753 mmHg 56%
    15:00 +29°C° 0 mm 4 mps 753 mmHg 58%
    16:00 +29°C° 0 mm 4 mps 753 mmHg 61%
    17:00 +28°C° 0 mm 3 mps 753 mmHg 64%
    18:00 +28°C° 0 mm 3 mps 754 mmHg 67%
    19:00 +27°C° 0 mm 3 mps 754 mmHg 69%
    20:00 +27°C° 0 mm 2 mps 754 mmHg 72%
    21:00 +26°C° 0 mm 2 mps 754 mmHg 74%
    22:00 +26°C° 0 mm 2 mps 754 mmHg 74%
    23:00 +26°C° 0 mm 2 mps 754 mmHg 75%

    26 August, Monday

    Time Temperature Precipitation Wind Pressure Humidity
    00:00 +25°C° 0 mm 2 mps 754 mmHg 75%
    01:00 +25°C° 0.1 mm 3 mps 754 mmHg 75%
    02:00 +25°C° 0.1 mm 4 mps 754 mmHg 76%
    03:00 +25°C° 0.1 mm 4 mps 754 mmHg 77%
    04:00 +25°C° 0.3 mm 4 mps 754 mmHg 78%
    05:00 +25°C° 0.3 mm 3 mps 754 mmHg 78%
    06:00 +25°C° 0.3 mm 3 mps 754 mmHg 79%
    07:00 +27°C° 0 mm 3 mps 755 mmHg 73%
    08:00 +28°C° 0 mm 3 mps 755 mmHg 67%
    09:00 +29°C° 0 mm 2 mps 755 mmHg 61%
    10:00 +30°C° 0 mm 2 mps 755 mmHg 57%
    11:00 +31°C° 0 mm 3 mps 754 mmHg 53%
    12:00 +31°C° 0 mm 3 mps 754 mmHg 50%
    13:00 +33°C° 0 mm 3 mps 754 mmHg 49%
    14:00 +33°C° 0 mm 3 mps 753 mmHg 48%
    15:00 +33°C° 0 mm 3 mps 753 mmHg 47%
    16:00 +31°C° 0 mm 3 mps 753 mmHg 50%
    17:00 +31°C° 0 mm 2 mps 753 mmHg 53%
    18:00 +30°C° 0 mm 2 mps 754 mmHg 56%
    19:00 +29°C° 0 mm 2 mps 754 mmHg 60%
    20:00 +28°C° 0 mm 2 mps 755 mmHg 65%
    21:00 +27°C° 0 mm 2 mps 755 mmHg 69%
    22:00 +26°C° 0 mm 2 mps 755 mmHg 69%
    23:00 +26°C° 0 mm 2 mps 755 mmHg 69%

    27 August, Tuesday

    Time Temperature Precipitation Wind Pressure Humidity
    00:00 +26°C° 0 mm 2 mps 755 mmHg 68%
    01:00 +26°C° 0 mm 1 mps 755 mmHg 69%
    02:00 +26°C° 0 mm 1 mps 754 mmHg 69%
    03:00 +25°C° 0 mm 1 mps 754 mmHg 69%
    04:00 +25°C° 0 mm 1 mps 754 mmHg 69%
    05:00 +26°C° 0 mm 1 mps 754 mmHg 69%
    06:00 +26°C° 0 mm 1 mps 755 mmHg 69%
    07:00 +27°C° 0 mm 1 mps 755 mmHg 65%
    08:00 +28°C° 0 mm 1 mps 755 mmHg 62%
    09:00 +29°C° 0 mm 1 mps 755 mmHg 58%
    10:00 +30°C° 0 mm 2 mps 755 mmHg 57%
    11:00 +30°C° 0 mm 4 mps 754 mmHg 55%
    12:00 +32°C° 0 mm 5 mps 754 mmHg 54%
    13:00 +32°C° 0 mm 5 mps 754 mmHg 57%
    14:00 +30°C° 0 mm 6 mps 754 mmHg 59%
    15:00 +30°C° 0 mm 7 mps 753 mmHg 61%
    16:00 +28°C° 1.9 mm 7 mps 753 mmHg 69%
    17:00 +27°C° 1.9 mm 7 mps 753 mmHg 77%
    18:00 +26°C° 1.9 mm 6 mps 753 mmHg 84%
    19:00 +26°C° 1.7 mm 7 mps 753 mmHg 84%
    20:00 +26°C° 1.7 mm 8 mps 753 mmHg 83%
    21:00 +26°C° 1.7 mm 8 mps 753 mmHg 82%
    22:00 +26°C° 0.5 mm 9 mps 753 mmHg 82%
    23:00 +26°C° 0.5 mm 10 mps 753 mmHg 82%

    28 August, Wednesday

    Time Temperature Precipitation Wind Pressure Humidity
    00:00 +26°C° 0.5 mm 11 mps 752 mmHg 82%
    01:00 +27°C° 0.1 mm 11 mps 752 mmHg 83%
    02:00 +27°C° 0.1 mm 11 mps 751 mmHg 84%
    03:00 +27°C° 0.1 mm 12 mps 751 mmHg 85%
    04:00 +27°C° 0.2 mm 11 mps 751 mmHg 86%
    05:00 +28°C° 0.2 mm 11 mps 750 mmHg 86%
    06:00 +28°C° 0.2 mm 10 mps 750 mmHg 86%
    07:00 +29°C° 0.1 mm 10 mps 750 mmHg 82%
    08:00 +31°C° 0.1 mm 10 mps 750 mmHg 78%
    09:00 +32°C° 0.1 mm 10 mps 750 mmHg 74%
    10:00 +32°C° 0.1 mm 10 mps 750 mmHg 71%
    11:00 +33°C° 0.1 mm 9 mps 750 mmHg 68%
    12:00 +34°C° 0.1 mm 9 mps 750 mmHg 64%
    13:00 +34°C° 0.1 mm 9 mps 750 mmHg 65%
    14:00 +33°C° 0.1 mm 8 mps 749 mmHg 66%
    15:00 +33°C° 0.1 mm 8 mps 749 mmHg 67%
    16:00 +32°C° 0.2 mm 8 mps 749 mmHg 71%
    17:00 +32°C° 0.2 mm 8 mps 749 mmHg 74%
    18:00 +31°C° 0.2 mm 8 mps 749 mmHg 78%
    19:00 +31°C° 0.9 mm 8 mps 749 mmHg 79%
    20:00 +29°C° 0.9 mm 7 mps 750 mmHg 81%
    21:00 +29°C° 0.9 mm 6 mps 750 mmHg 82%
    22:00 +29°C° 0.7 mm 5 mps 750 mmHg 84%
    23:00 +28°C° 0.7 mm 4 mps 750 mmHg 86%
    Show more